Regional Weather Roundup
Issued by NWS Upton, NY

Current Version | Previous Version | Text Only | Print | Product List | Glossary On
Versions: 1 2 3 4 5 6 7 8 9 10 11 12 13 14 15 16 17 18 19 20 21 22 23 24 25 26 27 28 29 30 31 32 33 34 35 36 37 38 39 40 41 42 43 44 45 46 47 48 49 50
000
ASUS41 KOKX 032005
RWROKX

REGIONAL WEATHER ROUNDUP
NATIONAL WEATHER SERVICE NEW YORK NY
300 PM EST TUE MAR 03 2015

NOTE: "FAIR" INDICATES FEW OR NO CLOUDS BELOW 12,000 FEET WITH NO
SIGNIFICANT WEATHER AND/OR OBSTRUCTIONS TO VISIBILITY.

NYZ071-072-176-178-NJZ106-104-032100-
NEW YORK CITY METRO AREA


CITY           SKY/WX    TMP DP  RH WIND       PRES   REMARKS
CENTRAL PARK   CLOUDY    31  17  56 S10G20    30.28F WCI  22
LAGUARDIA APRT CLOUDY    30  18  60 S15       30.27F WCI  19
KENNEDY INTL   CLOUDY    32  18  56 S12       30.29F WCI  23
NEWARK/LIBERTY FLURRIES  32  18  56 SE13      30.27F WCI  22
BRNX BOT. GARD   N/A    N/A N/A N/A E8        30.27F
TETERBORO      CLOUDY    31  16  54 S12       30.25F WCI  22
$$

NYZ177-179-078>081-032100-
LONG ISLAND NEW YORK

CITY           SKY/WX    TMP DP  RH WIND       PRES   REMARKS
FARMINGDALE    CLOUDY    28  15  58 S9        30.31F WCI  19
ISLIP          CLOUDY    27  12  53 S8        30.29F WCI  19
SHIRLEY        CLOUDY    27  13  55 S7        30.32F WCI  19
WESTHAMPTON    CLOUDY    28  13  53 S7        30.32F WCI  21
MONTAUK POINT    N/A     28  16  60 S7        30.34S WCI  21
$$

NYZ052-065-067-032100-
HUDSON VALLEY

CITY           SKY/WX    TMP DP  RH WIND       PRES   REMARKS
WHITE PLAINS   PTSUNNY   26  10  50 SE10      30.24F WCI  16
NEWBURGH       LGT SNOW  28  16  59 VRB5      30.23F WCI  23
MONTGOMERY     LGT SNOW  27  18  69 S10       30.20F WCI  17
POUGHKEEPSIE   CLOUDY    30  11  45 S8G17     30.24F WCI  22
ALBANY         CLOUDY    28   6  39 S14       30.18F WCI  17
$$

NJZ001-105-106-008-010-013-015-019>022-104-032100-
NEW JERSEY

CITY           SKY/WX    TMP DP  RH WIND       PRES   REMARKS
NEWARK/LIBERTY FLURRIES  32  18  56 SE13      30.27F WCI  22
TETERBORO      CLOUDY    31  16  54 S12       30.25F WCI  22
CALDWELL       LGT SNOW  29  19  66 S8        30.26F WCI  21
MORRISTOWN     LGT SNOW  28  21  74 S10       30.26F VSB 1   WCI  19
SOMERVILLE     LGT SNOW  28  22  78 CALM      30.24F
SUSSEX         LGT SNOW  26  17  68 SW9       30.21F WCI  17
ANDOVER          N/A     24  20  84 VRB6      30.21F WCI  17
TRENTON        CLOUDY    32  13  45 S8        30.24F WCI  25
MILLVILLE      FLURRIES  33  23  66 SE7       30.27S WCI  27
ATLANTIC CITY  CLOUDY    32  22  66 SE7       30.28F WCI  26
WRIGHTSTOWN    PTSUNNY   33  18  55 S9        30.24F WCI  25
TOMS RIVER     CLOUDY    34  18  51 S9        30.28F WCI  26
BELMAR         CLOUDY    30  18  59 S7        30.27F WCI  23
$$

PAZ047>061-062-071-032100-
EASTERN PENNSYLVANIA

CITY           SKY/WX    TMP DP  RH WIND       PRES   REMARKS
PHILADELPHIA   FLURRIES  33  14  45 S8        30.26F WCI  26
ALLENTOWN      LGT SNOW  25  19  78 SE7       30.23F WCI  17
SCRANTON       LGT SNOW  23  18  81 CALM      30.12F
$$

CTZ002-004>006-009-010-012-RIZ004-006-007-MAZ004-011-015-032100-
SOUTHERN NEW ENGLAND
 IN CT

CITY           SKY/WX    TMP DP  RH WIND       PRES   REMARKS
BRADLEY INTL   CLOUDY    30   6  36 S10       30.26F WCI  21
HARTFORD       CLOUDY    30   6  36 S6        30.29F WCI  24
DANBURY        CLOUDY    27   6  41 S7        30.27F WCI  19
WTRBRY/OXFORD  CLOUDY    27   3  36 S9        30.25F WCI  17
BRIDGEPORT     CLOUDY    26  13  57 S5        30.31F WCI  20
MERIDEN        CLOUDY    28   6  39 S9        30.29F WCI  19
NEW HAVEN      CLOUDY    27  11  51 S5        30.30F WCI  22
CHESTER        FAIR      28   5  37 SW6       30.29F WCI  22
GROTON         CLOUDY    25  13  60 S13       30.32S WCI  14
WILLIMANTIC    CLOUDY    31   6  35 S7        30.27F WCI  24

 IN RI

CITY           SKY/WX    TMP DP  RH WIND       PRES   REMARKS
PROVIDENCE     CLOUDY    29  12  49 S10       30.28F WCI  20
BLOCK ISLAND   FAIR      27  16  63 S7        30.30F WCI  19
WESTERLY       CLOUDY    26  13  57 S7        30.32F WCI  18

 IN MA

CITY           SKY/WX    TMP DP  RH WIND       PRES   REMARKS
BOSTON         CLOUDY    30   6  36 S8        30.26F WCI  22
WORCESTER      PTSUNNY   26   5  40 SW8       30.18F WCI  18
WESTFIELD      CLOUDY    28   4  35 S10       30.24F WCI  19
PROVINCETOWN   FAIR      27   7  43 S9        30.30F WCI  17
NANTUCKET      FAIR      26   8  46 SW6       30.32F WCI  19
$$

ANZ330-335-338-340-345-350-353-355-032100-
COASTAL MARINE OBSERVATIONS


STATION/POSITION TIME  SKY/WX   TEMP    WIND        PRES    VSBY  WAVE
                                AIR SEA DIR/SP/G                  HT/PER
                 (UTC)          (F)     (DEG/KT/KT) (MB)    (MI)  (FT/S)
NY HARB ENTRANCE 2000            32 38  160/ 12/ 14 1025.7          1/ 9
4S FIRE IS       1900               33                N/A           1/10
20S FIRE ISLAND  1900               36              1027.7          1/10
23SW MTP         2000                                 N/A           1/11
HUDSON CANYON    NOT AVBL
EXECUTION ROCKS  NOT AVBL
WESTERN LI SOUND NOT AVBL
CENTRAL LI SOUND NOT AVBL
EASTERN LI SOUND NOT AVBL
ROBBINS REEF     2000            30     160/ 16/ 19 1023.8
$$


>>>>>>>>>>>>>>>>>>>>>>>>>>>> KEY <<<<<<<<<<<<<<<<<<<<<<<<<<<
>                                                          <
>     SKY/WX - SKY CONDITION/PRESENT WEATHER               <
>     TMP    - TEMPERATURE IN FAHRENHEIT                   <
>     DP     - DEWPOINT IN FAHRENHEIT                      <
>     RH     - RELATIVE HUMIDITY IN PERCENT                <
>     WIND   - DIRECTION AND SPEED IN MPH                  <
>     PRES   - MEAN SEA LEVEL PRESSURE IN INCHES OF HG     <
>     WCI    - WIND CHILL INDEX                            <
>     VSB    - VISIBILITY IN MILES                         <
>     HX     - HEAT INDEX                                  <
>     TC     - TEMPERATURE IN CELSIUS                      <
>     VRB    - VARIABLE WIND DIRECTION                     <
>                                                          <
>>>>>>>>>>>>>>>>>>>>>>>>>>>> KEY <<<<<<<<<<<<<<<<<<<<<<<<<<<





USA.gov is the U.S. government's official web portal to all federal, state and local government web resources and services.